Retour au catalogue

COSMOS 970 DEB

ActifLEO
NORAD 10570·DEBRIS·🇷🇺 Russia

Lancé Dec 21, 1977 depuis Baikonur Cosmodrome

Loading…

Prochains Passages (prochaines 24 heures)

TLE

FraisSource: Space-Track

Époque: Sep 13, 2026, 20:42 UTC

1 10570U 77121M   26256.86268740  .00001597  00000-0  14513-2 0  9991
2 10570  65.3582 208.0224 0013876 277.6927 112.8964 13.86370737420065

Suivez COSMOS 970 DEB en temps réel avec AllMySat

Download on the App Store